ACA7773 EKCH-EGLL

Flight info

Callsign ACA7773
Flight time 1h 28m
Altitude 38000
Route LANGO DCT RAXLU DCT JUIST DCT ABNED L980 LOGAN
Aircraft B77W/H-SDE1E2E3FGHIJ2J3J4J5M1RWXY/LB1D1

Departure

Time 2026-05-06 19:43
Airport Copenhagen Kastrup Airport (EKCH)

Arrival

Time 2026-05-06 21:12
Airport London Heathrow Airport (EGLL)
Time Latitude Longitude Altitude Speed Heading
2026-05-06 18:56 55.62556 12.64861 32 ft 0 kts 89°
2026-05-06 18:56 55.62555 12.64861 32 ft 0 kts 89°
2026-05-06 19:02 55.62556 12.64861 32 ft 0 kts 89°
2026-05-06 19:03 55.62555 12.64861 32 ft 0 kts 89°
2026-05-06 19:23 55.62556 12.64861 32 ft 0 kts 89°
2026-05-06 19:26 55.62555 12.64858 32 ft 1 kts 89°
2026-05-06 19:26 55.62556 12.64832 32 ft 2 kts 104°
2026-05-06 19:26 55.62561 12.64808 32 ft 2 kts 124°
2026-05-06 19:26 55.62571 12.64788 32 ft 2 kts 141°
2026-05-06 19:27 55.62584 12.64774 32 ft 2 kts 159°
2026-05-06 19:27 55.62598 12.64767 32 ft 2 kts 176°
2026-05-06 19:27 55.62607 12.64767 32 ft 0 kts 182°
2026-05-06 19:36 55.62602 12.64767 32 ft 2 kts 180°
2026-05-06 19:37 55.62564 12.64770 32 ft 8 kts 178°
2026-05-06 19:37 55.62492 12.64772 32 ft 12 kts 179°
2026-05-06 19:37 55.62392 12.64782 32 ft 16 kts 178°
2026-05-06 19:37 55.62334 12.64709 32 ft 17 kts 244°
2026-05-06 19:38 55.62245 12.64412 32 ft 22 kts 231°
2026-05-06 19:38 55.62104 12.64265 32 ft 25 kts 205°
2026-05-06 19:38 55.61957 12.64142 32 ft 12 kts 205°
2026-05-06 19:38 55.61872 12.64082 30 ft 14 kts 191°
2026-05-06 19:39 55.61826 12.64074 30 ft 0 kts 180°
2026-05-06 19:39 55.61822 12.64075 30 ft 1 kts 178°
2026-05-06 19:39 55.61814 12.64075 30 ft 0 kts 178°
2026-05-06 19:40 55.61809 12.64076 30 ft 1 kts 178°
2026-05-06 19:40 55.61795 12.64077 31 ft 2 kts 176°
2026-05-06 19:41 55.61776 12.64079 31 ft 3 kts 176°
2026-05-06 19:41 55.61768 12.64080 31 ft 0 kts 175°
2026-05-06 19:41 55.61760 12.64081 31 ft 3 kts 176°
2026-05-06 19:41 55.61715 12.64088 31 ft 8 kts 175°
2026-05-06 19:42 55.61654 12.64086 30 ft 9 kts 194°
2026-05-06 19:42 55.61594 12.64024 30 ft 10 kts 220°
2026-05-06 19:42 55.61570 12.63988 30 ft 0 kts 221°
2026-05-06 19:42 55.61568 12.63984 30 ft 3 kts 221°
2026-05-06 19:43 55.61438 12.63785 29 ft 62 kts 221°
2026-05-06 19:43 55.60867 12.62903 30 ft 149 kts 220°
2026-05-06 19:43 55.59946 12.61464 358 ft 196 kts 219°
2026-05-06 19:43 55.58917 12.59868 1576 ft 198 kts 218°
2026-05-06 19:44 55.57888 12.58293 2520 ft 204 kts 218°
2026-05-06 19:44 55.56774 12.56583 3221 ft 222 kts 219°
2026-05-06 19:44 55.55770 12.54408 3986 ft 239 kts 242°
2026-05-06 19:44 55.55014 12.51744 4804 ft 254 kts 243°
2026-05-06 19:45 55.54133 12.48919 5680 ft 267 kts 240°
2026-05-06 19:45 55.53134 12.46062 6622 ft 278 kts 239°
2026-05-06 19:45 55.52111 12.43194 7762 ft 279 kts 239°
2026-05-06 19:45 55.51075 12.40293 8841 ft 282 kts 239°
2026-05-06 19:46 55.50037 12.37391 9915 ft 284 kts 239°
2026-05-06 19:46 55.48967 12.34401 10769 ft 295 kts 238°
2026-05-06 19:46 55.47834 12.31236 11483 ft 312 kts 238°
2026-05-06 19:46 55.46638 12.27899 12258 ft 327 kts 238°
2026-05-06 19:47 55.45399 12.24450 13053 ft 342 kts 238°
2026-05-06 19:47 55.44107 12.20863 13857 ft 357 kts 238°
2026-05-06 19:47 55.42751 12.17102 14734 ft 370 kts 238°
2026-05-06 19:47 55.41362 12.13255 15699 ft 381 kts 238°
2026-05-06 19:48 55.39936 12.09313 16896 ft 385 kts 238°
2026-05-06 19:48 55.38495 12.05338 18061 ft 389 kts 238°
2026-05-06 19:48 55.37045 12.01341 19216 ft 393 kts 238°
2026-05-06 19:48 55.35561 11.97262 20254 ft 399 kts 238°
2026-05-06 19:49 55.34067 11.93159 21255 ft 405 kts 238°
2026-05-06 19:49 55.32544 11.88983 22225 ft 412 kts 238°
2026-05-06 19:49 55.30989 11.84727 23248 ft 416 kts 237°
2026-05-06 19:49 55.29431 11.80473 24317 ft 418 kts 237°
2026-05-06 19:50 55.27845 11.76149 25297 ft 422 kts 237°
2026-05-06 19:50 55.26249 11.71803 26151 ft 428 kts 237°
2026-05-06 19:50 55.24639 11.67430 26960 ft 435 kts 237°
2026-05-06 19:50 55.23000 11.62984 27795 ft 441 kts 237°
2026-05-06 19:51 55.21323 11.58442 28621 ft 446 kts 237°
2026-05-06 19:51 55.19610 11.53814 29381 ft 453 kts 237°
2026-05-06 19:51 55.17913 11.49237 30372 ft 454 kts 236°
2026-05-06 19:51 55.16187 11.44590 31529 ft 450 kts 236°
2026-05-06 19:52 55.14486 11.40019 32601 ft 444 kts 237°
2026-05-06 19:52 55.12816 11.35541 33483 ft 441 kts 237°
2026-05-06 19:52 55.11141 11.31055 34139 ft 441 kts 236°
2026-05-06 19:52 55.09491 11.26645 34670 ft 441 kts 236°
2026-05-06 19:53 55.07796 11.22123 35169 ft 441 kts 236°
2026-05-06 19:53 55.06121 11.17663 35647 ft 440 kts 236°
2026-05-06 19:53 55.04462 11.13255 36103 ft 439 kts 236°
2026-05-06 19:53 55.02804 11.08854 36511 ft 438 kts 236°
2026-05-06 19:54 55.01150 11.04474 36876 ft 438 kts 236°
2026-05-06 19:54 54.99465 11.00018 37199 ft 439 kts 236°
2026-05-06 19:54 54.97798 10.95620 37518 ft 441 kts 236°
2026-05-06 19:54 54.96114 10.91181 37838 ft 442 kts 236°
2026-05-06 19:55 54.94426 10.86744 37942 ft 444 kts 236°
2026-05-06 19:55 54.92730 10.82290 37960 ft 442 kts 236°
2026-05-06 19:55 54.89366 10.73483 37958 ft 442 kts 236°
2026-05-06 19:56 54.85965 10.64610 37962 ft 442 kts 236°
2026-05-06 19:56 54.82540 10.55707 37956 ft 441 kts 236°
2026-05-06 19:57 54.79139 10.46896 37952 ft 442 kts 236°
2026-05-06 19:57 54.75726 10.38085 37950 ft 442 kts 236°
2026-05-06 19:58 54.72301 10.29276 37948 ft 441 kts 236°
2026-05-06 19:58 54.69142 10.20247 37951 ft 441 kts 241°
2026-05-06 19:59 54.66211 10.10962 37945 ft 441 kts 240°
2026-05-06 19:59 54.63250 10.01707 37946 ft 442 kts 240°
2026-05-06 20:00 54.60278 9.92502 37942 ft 442 kts 240°
2026-05-06 20:00 54.57264 9.83232 37933 ft 442 kts 240°
2026-05-06 20:01 54.54271 9.74072 37929 ft 442 kts 240°
2026-05-06 20:01 54.51255 9.64882 37935 ft 442 kts 240°
2026-05-06 20:02 54.48237 9.55724 37937 ft 442 kts 240°
2026-05-06 20:02 54.45223 9.46618 37939 ft 441 kts 240°
2026-05-06 20:03 54.42191 9.37488 37939 ft 442 kts 240°
2026-05-06 20:03 54.39131 9.28313 37943 ft 443 kts 239°
2026-05-06 20:04 54.36060 9.19136 37939 ft 443 kts 239°
2026-05-06 20:04 54.32980 9.09967 37937 ft 443 kts 239°
2026-05-06 20:05 54.29898 9.00827 37935 ft 443 kts 239°
2026-05-06 20:05 54.26794 8.91657 37936 ft 443 kts 240°
2026-05-06 20:06 54.23682 8.82497 37936 ft 443 kts 239°
2026-05-06 20:06 54.20588 8.73425 37936 ft 443 kts 239°
2026-05-06 20:07 54.17484 8.64355 37942 ft 444 kts 239°
2026-05-06 20:07 54.14359 8.55260 37940 ft 444 kts 239°
2026-05-06 20:08 54.11220 8.46158 37937 ft 444 kts 239°
2026-05-06 20:08 54.08094 8.37125 37944 ft 445 kts 239°
2026-05-06 20:09 54.04925 8.28002 37938 ft 445 kts 239°
2026-05-06 20:09 54.01796 8.19028 37941 ft 445 kts 239°
2026-05-06 20:10 53.98632 8.09987 37946 ft 445 kts 239°
2026-05-06 20:10 53.95456 8.00944 37941 ft 445 kts 239°
2026-05-06 20:11 53.92286 7.91951 37941 ft 446 kts 239°
2026-05-06 20:11 53.89105 7.82960 37938 ft 446 kts 239°
2026-05-06 20:12 53.85916 7.73977 37940 ft 446 kts 239°
2026-05-06 20:12 53.82717 7.65001 37944 ft 447 kts 239°
2026-05-06 20:13 53.79500 7.56008 37945 ft 446 kts 239°
2026-05-06 20:13 53.76318 7.47140 37941 ft 447 kts 239°
2026-05-06 20:14 53.73087 7.38171 37948 ft 446 kts 239°
2026-05-06 20:14 53.69860 7.29246 37951 ft 447 kts 238°
2026-05-06 20:15 53.66594 7.20246 37950 ft 447 kts 238°
2026-05-06 20:15 53.63342 7.11315 37952 ft 446 kts 238°
2026-05-06 20:16 53.60088 7.02411 37957 ft 447 kts 238°
2026-05-06 20:16 53.56831 6.93536 37955 ft 447 kts 237°
2026-05-06 20:17 53.53276 6.84965 37958 ft 449 kts 234°
2026-05-06 20:17 53.49661 6.76474 37957 ft 448 kts 234°
2026-05-06 20:18 53.46019 6.67954 37963 ft 448 kts 234°
2026-05-06 20:18 53.42404 6.59527 37965 ft 448 kts 234°
2026-05-06 20:19 53.38750 6.51036 37968 ft 449 kts 234°
2026-05-06 20:19 53.35100 6.42583 37969 ft 448 kts 234°
2026-05-06 20:20 53.31451 6.34161 37970 ft 448 kts 234°
2026-05-06 20:20 53.27786 6.25730 37973 ft 449 kts 234°
2026-05-06 20:21 53.24088 6.17252 37974 ft 449 kts 234°
2026-05-06 20:21 53.20408 6.08844 37972 ft 450 kts 234°
2026-05-06 20:22 53.16729 6.00467 37973 ft 450 kts 234°
2026-05-06 20:22 53.13021 5.92051 37977 ft 450 kts 234°
2026-05-06 20:23 53.09331 5.83702 37974 ft 450 kts 234°
2026-05-06 20:23 53.05629 5.75354 37978 ft 449 kts 234°
2026-05-06 20:24 53.01920 5.67018 37977 ft 450 kts 234°
2026-05-06 20:24 52.98187 5.58657 37980 ft 450 kts 234°
2026-05-06 20:25 52.94466 5.50349 37978 ft 450 kts 234°
2026-05-06 20:25 52.90735 5.42046 37982 ft 450 kts 234°
2026-05-06 20:26 52.86991 5.33741 37986 ft 450 kts 233°
2026-05-06 20:26 52.83248 5.25466 37982 ft 450 kts 233°
2026-05-06 20:27 52.79474 5.17150 37981 ft 450 kts 233°
2026-05-06 20:27 52.75730 5.08925 37984 ft 450 kts 233°
2026-05-06 20:28 52.71963 5.00678 37979 ft 450 kts 233°
2026-05-06 20:28 52.68199 4.92465 37978 ft 450 kts 233°
2026-05-06 20:29 52.64417 4.84237 37978 ft 450 kts 233°
2026-05-06 20:29 52.60656 4.76084 37978 ft 450 kts 233°
2026-05-06 20:30 52.54971 4.63807 37979 ft 451 kts 233°
2026-05-06 20:31 52.51250 4.55803 37980 ft 451 kts 233°
2026-05-06 20:31 52.47414 4.47579 37981 ft 452 kts 233°
2026-05-06 20:32 52.43598 4.39422 37979 ft 452 kts 233°
2026-05-06 20:32 52.39813 4.31358 37981 ft 452 kts 232°
2026-05-06 20:33 52.35981 4.23221 37983 ft 452 kts 232°
2026-05-06 20:33 52.32153 4.15117 37979 ft 452 kts 232°
2026-05-06 20:34 52.28340 4.07071 37981 ft 452 kts 232°
2026-05-06 20:34 52.24470 3.98930 37986 ft 454 kts 233°
2026-05-06 20:35 52.20612 3.90841 37993 ft 454 kts 233°
2026-05-06 20:35 52.16746 3.82761 38000 ft 454 kts 233°
2026-05-06 20:36 52.12889 3.74723 38000 ft 454 kts 232°
2026-05-06 20:36 52.09011 3.66668 37997 ft 453 kts 232°
2026-05-06 20:37 52.05129 3.58632 37992 ft 454 kts 232°
2026-05-06 20:37 52.01222 3.50567 37995 ft 454 kts 232°
2026-05-06 20:38 51.97356 3.42613 37992 ft 454 kts 233°
2026-05-06 20:38 51.93570 3.34846 37987 ft 454 kts 232°
2026-05-06 20:39 51.89545 3.26616 37999 ft 455 kts 232°
2026-05-06 20:39 51.85973 3.18261 37986 ft 453 kts 244°
2026-05-06 20:40 51.84071 3.08594 37983 ft 453 kts 262°
2026-05-06 20:40 51.83506 2.98516 37992 ft 453 kts 265°
2026-05-06 20:41 51.82939 2.88411 37988 ft 453 kts 264°
2026-05-06 20:41 51.82319 2.78355 37988 ft 453 kts 264°
2026-05-06 20:42 51.81668 2.68345 37989 ft 452 kts 264°
2026-05-06 20:42 51.80989 2.58267 37999 ft 453 kts 264°
2026-05-06 20:43 51.80300 2.48289 37999 ft 452 kts 264°
2026-05-06 20:43 51.79593 2.38209 37982 ft 447 kts 264°
2026-05-06 20:43 51.79291 2.33950 37710 ft 443 kts 263°
2026-05-06 20:44 51.78912 2.28644 37055 ft 447 kts 263°
2026-05-06 20:44 51.78553 2.23657 36442 ft 450 kts 263°
2026-05-06 20:44 51.78217 2.18642 35930 ft 450 kts 264°
2026-05-06 20:44 51.77925 2.13560 35455 ft 447 kts 265°
2026-05-06 20:45 51.77642 2.08648 34852 ft 449 kts 265°
2026-05-06 20:45 51.77346 2.03576 33652 ft 460 kts 264°
2026-05-06 20:45 51.77045 1.98463 32371 ft 471 kts 264°
2026-05-06 20:45 51.76731 1.93204 31479 ft 471 kts 264°
2026-05-06 20:46 51.76418 1.88017 31007 ft 462 kts 264°
2026-05-06 20:46 51.76110 1.82955 30557 ft 454 kts 264°
2026-05-06 20:46 51.75804 1.77971 29978 ft 449 kts 264°
2026-05-06 20:46 51.75494 1.72945 29328 ft 445 kts 264°
2026-05-06 20:47 51.75191 1.68093 28693 ft 441 kts 264°
2026-05-06 20:47 51.74883 1.63179 28051 ft 437 kts 264°
2026-05-06 20:47 51.74577 1.58339 27417 ft 433 kts 264°
2026-05-06 20:47 51.74273 1.53555 26796 ft 429 kts 264°
2026-05-06 20:48 51.73970 1.48824 26177 ft 425 kts 264°
2026-05-06 20:48 51.73668 1.44142 25550 ft 422 kts 265°
2026-05-06 20:48 51.73363 1.39447 24913 ft 418 kts 265°
2026-05-06 20:48 51.73065 1.34879 24295 ft 415 kts 264°
2026-05-06 20:49 51.72763 1.30272 23703 ft 411 kts 264°
2026-05-06 20:49 51.72466 1.25787 23121 ft 407 kts 264°
2026-05-06 20:49 51.72165 1.21249 22502 ft 404 kts 264°
2026-05-06 20:49 51.71866 1.16789 21907 ft 401 kts 264°
2026-05-06 20:50 51.71567 1.12333 21315 ft 397 kts 264°
2026-05-06 20:50 51.71267 1.07910 20725 ft 394 kts 264°
2026-05-06 20:50 51.70975 1.03608 20148 ft 390 kts 264°
2026-05-06 20:50 51.70681 0.99306 19582 ft 387 kts 264°
2026-05-06 20:51 51.70382 0.94962 18983 ft 383 kts 265°
2026-05-06 20:51 51.70089 0.90729 18377 ft 381 kts 265°
2026-05-06 20:51 51.69797 0.86530 17770 ft 378 kts 265°
2026-05-06 20:51 51.69506 0.82366 17188 ft 375 kts 265°
2026-05-06 20:52 51.69214 0.78197 16590 ft 373 kts 265°
2026-05-06 20:52 51.68918 0.74016 15985 ft 371 kts 265°
2026-05-06 20:52 51.68626 0.69901 15414 ft 368 kts 265°
2026-05-06 20:52 51.68337 0.65843 14951 ft 362 kts 265°
2026-05-06 20:53 51.68055 0.61913 14749 ft 350 kts 265°
2026-05-06 20:53 51.67777 0.58068 14586 ft 336 kts 265°
2026-05-06 20:53 51.67514 0.54426 14517 ft 322 kts 265°
2026-05-06 20:53 51.67260 0.50942 14464 ft 307 kts 265°
2026-05-06 20:54 51.67017 0.47608 14433 ft 293 kts 265°
2026-05-06 20:54 51.66783 0.44406 14439 ft 278 kts 265°
2026-05-06 20:54 51.66561 0.41392 14393 ft 266 kts 266°
2026-05-06 20:54 51.66344 0.38442 14133 ft 262 kts 266°
2026-05-06 20:55 51.66128 0.35506 13786 ft 262 kts 266°
2026-05-06 20:55 51.65915 0.32630 13475 ft 262 kts 265°
2026-05-06 20:55 51.65700 0.29745 13122 ft 261 kts 265°
2026-05-06 20:55 51.65401 0.26886 12818 ft 260 kts 257°
2026-05-06 20:56 51.64938 0.24127 12469 ft 260 kts 256°
2026-05-06 20:56 51.64448 0.21329 12210 ft 259 kts 256°
2026-05-06 20:56 51.63964 0.18582 11845 ft 258 kts 256°
2026-05-06 20:56 51.63476 0.15816 11559 ft 257 kts 256°
2026-05-06 20:57 51.62999 0.13101 11221 ft 256 kts 256°
2026-05-06 20:57 51.62516 0.10361 10919 ft 256 kts 256°
2026-05-06 20:57 51.62038 0.07649 10613 ft 255 kts 256°
2026-05-06 20:57 51.61568 0.04980 10313 ft 254 kts 256°
2026-05-06 20:58 51.61089 0.02256 10033 ft 253 kts 256°
2026-05-06 20:58 51.60624 -0.00385 9764 ft 251 kts 256°
2026-05-06 20:58 51.60154 -0.03067 9476 ft 250 kts 256°
2026-05-06 20:58 51.59736 -0.05472 9218 ft 249 kts 256°
2026-05-06 20:59 51.59267 -0.08207 8933 ft 248 kts 256°
2026-05-06 20:59 51.58817 -0.10860 8639 ft 247 kts 256°
2026-05-06 20:59 51.58391 -0.13510 8336 ft 247 kts 261°
2026-05-06 20:59 51.58189 -0.16233 8035 ft 246 kts 266°
2026-05-06 21:00 51.58044 -0.18969 7748 ft 246 kts 266°
2026-05-06 21:00 51.57906 -0.21687 7471 ft 245 kts 266°
2026-05-06 21:00 51.57767 -0.24403 7179 ft 245 kts 266°
2026-05-06 21:00 51.57627 -0.27087 7043 ft 242 kts 266°
2026-05-06 21:01 51.57483 -0.29837 7029 ft 244 kts 266°
2026-05-06 21:01 51.57340 -0.32519 7032 ft 244 kts 266°
2026-05-06 21:01 51.57194 -0.35201 7028 ft 244 kts 266°
2026-05-06 21:01 51.57048 -0.37886 7030 ft 245 kts 266°
2026-05-06 21:02 51.56900 -0.40622 7030 ft 244 kts 266°
2026-05-06 21:02 51.56752 -0.43316 7017 ft 244 kts 266°
2026-05-06 21:02 51.56602 -0.46048 6997 ft 244 kts 266°
2026-05-06 21:02 51.56456 -0.48767 6989 ft 243 kts 266°
2026-05-06 21:03 51.56310 -0.51520 6988 ft 243 kts 266°
2026-05-06 21:03 51.56164 -0.54249 6989 ft 243 kts 266°
2026-05-06 21:03 51.56016 -0.56976 6989 ft 243 kts 266°
2026-05-06 21:03 51.55865 -0.59675 6992 ft 242 kts 266°
2026-05-06 21:04 51.55712 -0.62368 6992 ft 241 kts 266°
2026-05-06 21:04 51.55562 -0.65009 6991 ft 241 kts 265°
2026-05-06 21:04 51.55406 -0.67716 6873 ft 244 kts 265°
2026-05-06 21:04 51.55249 -0.70463 6515 ft 247 kts 265°
2026-05-06 21:05 51.55094 -0.73176 6030 ft 256 kts 265°
2026-05-06 21:05 51.54934 -0.75956 5554 ft 264 kts 265°
2026-05-06 21:05 51.54763 -0.78907 5019 ft 271 kts 265°
2026-05-06 21:05 51.54563 -0.81836 4532 ft 277 kts 259°
2026-05-06 21:06 51.53723 -0.84693 4078 ft 281 kts 231°
2026-05-06 21:06 51.52198 -0.86574 3670 ft 281 kts 204°
2026-05-06 21:06 51.50283 -0.87163 3253 ft 280 kts 176°
2026-05-06 21:06 51.48464 -0.86315 2919 ft 273 kts 148°
2026-05-06 21:07 51.47066 -0.84377 2648 ft 264 kts 123°
2026-05-06 21:07 51.46440 -0.81766 2498 ft 249 kts 93°
2026-05-06 21:07 51.46696 -0.79165 2483 ft 231 kts 65°
2026-05-06 21:07 51.47299 -0.76822 2493 ft 223 kts 71°
2026-05-06 21:08 51.47590 -0.74402 2493 ft 220 kts 82°
2026-05-06 21:08 51.47669 -0.71979 2509 ft 220 kts 86°
2026-05-06 21:08 51.47680 -0.69558 2497 ft 219 kts 88°
2026-05-06 21:08 51.47681 -0.67150 2392 ft 218 kts 88°
2026-05-06 21:09 51.47683 -0.64858 2120 ft 199 kts 88°
2026-05-06 21:09 51.47689 -0.62728 1873 ft 186 kts 87°
2026-05-06 21:09 51.47698 -0.60766 1638 ft 174 kts 86°
2026-05-06 21:09 51.47707 -0.58870 1407 ft 164 kts 86°
2026-05-06 21:10 51.47715 -0.57131 1197 ft 153 kts 86°
2026-05-06 21:10 51.47722 -0.55552 1001 ft 144 kts 86°
2026-05-06 21:10 51.47727 -0.54008 812 ft 137 kts 86°
2026-05-06 21:10 51.47735 -0.52527 622 ft 133 kts 86°
2026-05-06 21:11 51.47739 -0.51061 440 ft 133 kts 86°
2026-05-06 21:11 51.47746 -0.49584 251 ft 134 kts 87°
2026-05-06 21:11 51.47751 -0.48171 100 ft 134 kts 87°
2026-05-06 21:11 51.47758 -0.46893 83 ft 106 kts 92°
2026-05-06 21:12 51.47762 -0.45904 83 ft 70 kts 90°
2026-05-06 21:12 51.47760 -0.45354 83 ft 23 kts 90°
2026-05-06 21:12 51.47758 -0.45305 83 ft 0 kts 94°
2026-05-06 21:12 51.47755 -0.45272 83 ft 9 kts 103°
2026-05-06 21:13 51.47709 -0.45173 83 ft 9 kts 162°
2026-05-06 21:13 51.47647 -0.45175 83 ft 6 kts 190°
2026-05-06 21:13 51.47636 -0.45177 83 ft 3 kts 180°
2026-05-06 21:13 51.47602 -0.45149 83 ft 8 kts 109°
2026-05-06 21:14 51.47598 -0.45033 83 ft 11 kts 89°
2026-05-06 21:14 51.47599 -0.44901 83 ft 12 kts 89°
2026-05-06 21:14 51.47600 -0.44761 83 ft 12 kts 89°
2026-05-06 21:14 51.47552 -0.44660 83 ft 12 kts 147°
2026-05-06 21:15 51.47479 -0.44580 83 ft 13 kts 155°
2026-05-06 21:15 51.47384 -0.44560 83 ft 13 kts 178°
2026-05-06 21:15 51.47286 -0.44556 83 ft 14 kts 179°
2026-05-06 21:15 51.47198 -0.44558 83 ft 7 kts 180°
2026-05-06 21:16 51.47169 -0.44558 83 ft 4 kts 180°
2026-05-06 21:16 51.47097 -0.44558 83 ft 15 kts 178°
2026-05-06 21:16 51.46950 -0.44556 83 ft 23 kts 179°
2026-05-06 21:16 51.46865 -0.44516 83 ft 11 kts 115°
2026-05-06 21:17 51.46862 -0.44457 83 ft 5 kts 84°
2026-05-06 21:17 51.46864 -0.44423 83 ft 0 kts 88°
2026-05-06 21:17 51.46864 -0.44421 83 ft 0 kts 88°
2026-05-06 21:33 51.46864 -0.44442 83 ft 2 kts 88°
2026-05-06 21:33 51.46863 -0.44466 83 ft 2 kts 88°
2026-05-06 21:33 51.46863 -0.44490 83 ft 2 kts 100°
2026-05-06 21:33 51.46868 -0.44512 83 ft 2 kts 119°
2026-05-06 21:34 51.46877 -0.44532 83 ft 2 kts 135°